Regional Weather Roundup
Issued by NWS

Home | Current Version | Previous Version | Text Only | Print | Product List | Glossary Off
Versions: 1 2 3 4 5 6 7 8 9 10 11 12 13 14 15 16 17 18 19 20 21 22 23 24 25 26 27 28 29 30 31 32 33 34 35 36 37 38 39 40 41 42 43 44 45 46 47 48 49 50

000
ASUS45 KTFX 190404
RWRMT
MONTANA HOURLY WEATHER ROUNDUP
NATIONAL WEATHER SERVICE GREAT FALLS MT
904 PM MST THU DEC 18 2014

NOTE: "FAIR" INDICATES FEW OR NO CLOUDS BELOW 12000 FEET WITH NO
SIGNIFICANT WEATHER AND/OR OBSTRUCTIONS TO VISIBILITY.

* THESE STATIONS ARE NOT UNDER NWS QUALITY CONTROL. THEY DO NOT
   REPORT WEATHER SUCH AS PRECIPITATION OR FOG.

MTZ001>007-043-190500-
WEST OF THE DIVIDE
CITY           SKY/WX    TMP DP  RH WIND       PRES   REMARKS
KALISPELL      CLOUDY    30  30 100 CALM      29.97F
MISSOULA       CLOUDY    30  27  89 CALM      30.02F
BUTTE          CLOUDY    25  19  78 CALM      29.99S
MULLAN PASS    FOG       30  28  92 CALM      29.91F VSB M1/4
* ESSEX        N/A       31  30  96 SE1        N/A
* LINCOLN      N/A       29  28  96 W1G6       N/A
* LOOKOUT PASS N/A       32  32 100 N/A        N/A
* POLSON       N/A       33  31  92 SE1        N/A
* RONAN APT    MOCLDY    32  30  92 N/A        N/A
* SEELEY LAKE  N/A       28  27  96 N/A        N/A
* THOMP F APT  MOCLDY    24  22  92 E4G10      N/A
$$

MTZ008-052>055-190500-
SOUTHWEST MONTANA
CITY           SKY/WX    TMP DP  RH WIND       PRES   REMARKS
BOZEMAN        CLOUDY    28  23  81 SE3       30.01F
DILLON         CLOUDY    27  21  78 S9        30.02R WCI  18
* W YELLOWSTON MOCLDY    25  22  88 N/A        N/A
* THREE FORKS  PTCLDY    28  28 100 N/A        N/A
* BOULDER HILL N/A       28  16  61 SW10       N/A   WCI  19
* MONIDA PASS  N/A       22  22 100 SE13       N/A   WCI  10
* RAYNOLDS PAS N/A       24   9  53 S15        N/A   WCI  11
* WHITEHALL    N/A       32  23  69 SW5G11     N/A   WCI  27
* WISE RIVER   N/A       24  21  88 W3         N/A
$$

MTZ009>010-012-014-046-048-049-054-190500-
EAST SLOPES AND CENTRAL MONTANA
CITY           SKY/WX    TMP DP  RH WIND       PRES   REMARKS
CUT BANK       PTCLDY    30  23  75 W7        29.87R WCI  23
GREAT FALLS    CLEAR     36  27  70 SW22      29.89F WCI  25
HELENA         MOCLDY    27  23  85 SW3       29.99F
* DEARBORN     N/A       38  25  60 S11G16     N/A   WCI  31
* EAST GLACIER N/A       34  23  64 W18G28     N/A   WCI  23
* MONARCH      N/A       32  17  54 SW9G16     N/A   WCI  24
* PENDROY      N/A       27  18  69 NW9        N/A   WCI  18
* ROGERS PASS  N/A       31  26  82 SE10G22    N/A   WCI  22
* SWEET GRASS  N/A       34  27  76 W17G22     N/A   WCI  23
$$

MTZ011-013-016-021-035-040-045-047-050-051-190500-
NORTH CENTRAL MONTANA
CITY           SKY/WX    TMP DP  RH WIND       PRES   REMARKS
HAVRE          MOCLDY    25  21  85 W6        29.90S WCI  18
LEWISTOWN      MOCLDY    36  25  64 SW8       29.92S WCI  30
* N BAR RANCH  FAIR      37  23  57 W7        29.92S WCI  32
* CHESTER      N/A       24  22  92 SW1        N/A
* DENTON       N/A       31  24  75 SE8        N/A   WCI  24
* GEYSER       N/A       36  22  57 SW14G19    N/A   WCI  27
* JUDITH GAP   N/A       36  21  54 W11G17     N/A   WCI  28
* LOMA         N/A       36  27  70 W8         N/A   WCI  30
$$

MTZ017>020-022>027-061-062-190500-
NORTHEAST MONTANA
CITY           SKY/WX    TMP DP  RH WIND       PRES   REMARKS
GLASGOW        FOG       25  21  85 S3        29.90S
GLENDIVE       PTCLDY    28  23  81 SW10      29.93S WCI  19
JORDAN         PTCLDY    28  27  96 W6        29.90F WCI  21
SIDNEY         PTCLDY    19  18  96 CALM      29.94S
WOLF POINT     MOCLDY    18  14  84 CALM      29.93S
* BEAVER HILL  N/A       30  24  78 S12        N/A   WCI  20
* CIRCLE       N/A       31  28  89 N/A        N/A
* LINDSAY DVD  N/A       34  26  73 W6         N/A   WCI  29
* NAVAJO       N/A       23  22  96 W2         N/A
* SACO         N/A       18  16  92 N/A        N/A
$$

MTZ028>042-056>058-190500-
SOUTHCENTRAL AND SOUTHEAST MONTANA
CITY           SKY/WX    TMP DP  RH WIND       PRES   REMARKS
BAKER          CLEAR     30  25  82 SW12      29.95R WCI  20
BILLINGS       PTCLDY    32  19  59 SW22G28   29.98S WCI  19
LIVINGSTON     CLOUDY    39  21  48 SW24G37   29.96F WCI  28
MILES CITY     CLOUDY    28  25  89 S7        29.95S WCI  21
* LAUREL APT   PTCLDY    30  12  47 S5         N/A   WCI  25
* ROUNDUP APT  PTCLDY    36  19  50 N/A        N/A
* ALZADA       N/A       24  19  81 NW3        N/A
* HYSHAM       N/A       32  20  61 W5         N/A   WCI  27
* LAME DEER    N/A       34  16  48 W6         N/A   WCI  29
* REED POINT   N/A       30  20  66 S1         N/A
* ROSCOE HILL  N/A       36   7  30 S9G16      N/A   WCI  29
$$

REGIONAL REPORTS...DAKOTAS
CITY           SKY/WX    TMP DP  RH WIND       PRES   REMARKS
WILLISTON      FOG       28  27  96 S3        29.92F
DICKINSON      CLEAR     25  19  78 SW6       29.91S WCI  18
BEACH          PTCLDY    28  27  96 SW9       29.93S WCI  19
CROSBY         FOG       27  27 100 SW5       29.93S VSB 3    WCI  21
WATFORD CITY   FOG       25  25 100 CALM      29.90F VSB M1/4
BISMARCK       CLOUDY    28  27  96 S5        30.01F WCI  22
GRAND FORKS    CLOUDY    19  16  88 S12       30.14F WCI   6
FARGO          HAZE      21  16  81 S13       30.16S WCI   8
BUFFALO SD     PTCLDY    28  23  81 W10       29.89S WCI  19
RAPID CITY     PTCLDY    21  19  92 W3        30.01S
$$

REGIONAL REPORTS...WYOMING/IDAHO/WASHINGTON
CITY           SKY/WX    TMP DP  RH WIND       PRES   REMARKS
GILLETTE       CLEAR     28  16  61 SW14      29.98F WCI  17
SHERIDAN       PTCLDY    27  14  58 S5        29.97F WCI  21
CODY           PTCLDY    27  12  53 NW3       29.99S
YELLOWSTONE LA MOCLDY    23  18  81 VRB3      30.08S
SALMON         CLOUDY    27  21  78 CALM      30.08S
MULLAN PASS    FOG       30  28  92 CALM      29.91S VSB M1/4
SAND POINT     FOG       32  32 100 CALM      29.97F VSB 1 3/4
SPOKANE        CLOUDY    37  37 100 E5        29.93F WCI  33

$$



USA.gov is the U.S. government's official web portal to all federal, state and local government web resources and services.